User: anonymous   Login
Location: Civry
(47.2902°N, 4.6156°E)
Time: 02:00:39
(UTC+00:00)
Language:

Cosmos 1697 Rocket - Orbit

View from above orbital plane
View from above orbital plane
View from above satellite
View from above satellite

Ground track
Ground track

The orbit data is extracted from the following two-line orbital elements,

1 16182U 85097B   20192.49565785 -.00000003 +00000-0 +22774-4 0  9990
2 16182 071.0019 173.0168 0007391 186.2568 321.6887 14.16255626794418
Epoch (UTC): 10 July 2020 11:53:44
Eccentricity: 0.0007391
inclination: 71.0019°
perigee height: 833 km
apogee height: 843 km
right ascension of ascending node: 173.0168°
argument of perigee: 186.2568°
revolutions per day: 14.16255626
mean anomaly at epoch: 321.6887°
orbit number at epoch: 79441

The dashed part of the orbit path shows where the satellite is in the earth's shadow,  

DLR